Simultaneous Nadir Overpasses (SNOs) Predictions

Prediction of SNOs between AQUA and NPP Satellite Orbit:

Table of predicted SNOs for the next 14.0 days since TLE Epoch: 1/17/2020
Index Date (AQUA) Time (AQUA) Lat,Lon (AQUA) SZA (AQUA ) Date (NPP) Time (NPP) Lat,Lon (NPP) SZA (NPP ) Distance(km) Time Diff (sec)
1 01/20/2020 06:21:38 75.77, -37.03 117.76 01/20/2020 06:21:03 75.76, -37.11 117.82 2.47 35
2 01/20/2020 07:10:45 -76.76, 133.84 63.38 01/20/2020 07:11:27 -76.75, 133.74 63.39 2.61 42
3 01/22/2020 22:37:55 76.35, 80.66 116.57 01/22/2020 22:37:42 76.35, 80.69 116.57 0.90 13
4 01/22/2020 23:27:05 -77.18,-108.72 64.42 01/22/2020 23:28:09 -77.19,-108.71 64.47 0.45 64
5 01/25/2020 14:05:21 -75.30, 25.75 62.84 01/25/2020 14:04:14 -75.29, 25.67 62.76 2.66 67
6 01/25/2020 14:54:22 76.48,-163.01 115.83 01/25/2020 14:54:32 76.48,-163.05 115.83 1.24 10
7 01/28/2020 06:21:38 -75.93, 143.47 64.18 01/28/2020 06:20:53 -75.93, 143.49 64.14 0.61 45
8 01/28/2020 07:10:40 77.04, -45.15 114.55 01/28/2020 07:11:12 77.05, -45.04 114.49 2.92 32
9 01/30/2020 22:38:04 -76.12,-100.09 65.06 01/30/2020 22:37:42 -76.11,-100.14 65.03 1.56 22




NCC Satellite Simultaneous Nadir Overpasses (SNOs) Prediction Service
